When you browse on this site, cookies collect data to enhance your experience and personalize the content and advertising you see.
Visit our Privacy Policy to learn more. By continuing to use the site, you agree to this use of cookies and data.
  • In Hungary
  • List of Countries
  • For 7 days
  • Water Temperature
  • Satellite Maps
  • Weather Map
  • News
  • Weather Widgets
  • user-avatar
    Login

    Hourly Weather Szczecno

    Today, 22 May, Wednesday

    Time Temperature Precipitation Wind Pressure Humidity
    00:00 +13°C° 0.1 mm 2 mps 728 mmHg 97%
    01:00 +13°C° 0 mm 1 mps 727 mmHg 98%
    02:00 +13°C° 0.1 mm 2 mps 728 mmHg 98%
    03:00 +13°C° 0.1 mm 2 mps 728 mmHg 98%
    04:00 +13°C° 0.1 mm 2 mps 728 mmHg 98%
    05:00 +13°C° 0.1 mm 2 mps 728 mmHg 97%
    06:00 +13°C° 0.1 mm 2 mps 728 mmHg 95%
    07:00 +14°C° 0.1 mm 2 mps 728 mmHg 94%
    08:00 +13°C° 0.2 mm 3 mps 728 mmHg 92%
    09:00 +14°C° 0.2 mm 3 mps 729 mmHg 90%
    10:00 +14°C° 0.2 mm 3 mps 729 mmHg 88%
    11:00 +16°C° 1.1 mm 3 mps 729 mmHg 87%
    12:00 +17°C° 1.1 mm 3 mps 729 mmHg 85%
    13:00 +17°C° 1.1 mm 3 mps 729 mmHg 84%
    14:00 +18°C° 0.9 mm 3 mps 729 mmHg 82%
    15:00 +18°C° 0.9 mm 3 mps 729 mmHg 79%
    16:00 +19°C° 0.9 mm 2 mps 729 mmHg 77%
    17:00 +18°C° 0.7 mm 2 mps 729 mmHg 82%
    18:00 +17°C° 0.7 mm 2 mps 730 mmHg 87%
    19:00 +16°C° 0.7 mm 2 mps 730 mmHg 92%
    20:00 +15°C° 0.2 mm 2 mps 730 mmHg 93%
    21:00 +14°C° 0.2 mm 2 mps 730 mmHg 94%
    22:00 +13°C° 0.2 mm 2 mps 731 mmHg 96%
    23:00 +13°C° 0.1 mm 2 mps 731 mmHg 96%

    Tomorrow, 23 May, Thursday

    Time Temperature Precipitation Wind Pressure Humidity
    00:00 +12°C° 0.1 mm 3 mps 731 mmHg 97%
    01:00 +12°C° 0.1 mm 3 mps 732 mmHg 97%
    02:00 +12°C° 0.1 mm 3 mps 732 mmHg 97%
    03:00 +12°C° 0.1 mm 3 mps 732 mmHg 97%
    04:00 +12°C° 0.1 mm 3 mps 732 mmHg 97%
    05:00 +13°C° 0.2 mm 4 mps 733 mmHg 96%
    06:00 +14°C° 0.2 mm 4 mps 733 mmHg 95%
    07:00 +14°C° 0.2 mm 4 mps 733 mmHg 94%
    08:00 +15°C° 0.3 mm 4 mps 734 mmHg 92%
    09:00 +15°C° 0.3 mm 4 mps 734 mmHg 90%
    10:00 +16°C° 0.3 mm 5 mps 734 mmHg 88%
    11:00 +16°C° 0.6 mm 5 mps 735 mmHg 89%
    12:00 +15°C° 0.6 mm 6 mps 735 mmHg 90%
    13:00 +15°C° 0.6 mm 6 mps 735 mmHg 91%
    14:00 +15°C° 0.4 mm 6 mps 735 mmHg 91%
    15:00 +14°C° 0.4 mm 6 mps 735 mmHg 92%
    16:00 +14°C° 0.4 mm 6 mps 735 mmHg 92%
    17:00 +14°C° 0.5 mm 6 mps 735 mmHg 93%
    18:00 +13°C° 0.5 mm 6 mps 736 mmHg 93%
    19:00 +13°C° 0.5 mm 5 mps 736 mmHg 93%
    20:00 +13°C° 0.5 mm 5 mps 736 mmHg 94%
    21:00 +13°C° 0.5 mm 5 mps 736 mmHg 94%
    22:00 +13°C° 0.5 mm 5 mps 737 mmHg 95%
    23:00 +13°C° 0.5 mm 5 mps 737 mmHg 95%

    Day after tomorrow, 24 May, Friday

    Time Temperature Precipitation Wind Pressure Humidity
    00:00 +12°C° 0.5 mm 5 mps 737 mmHg 94%
    01:00 +12°C° 0.5 mm 5 mps 737 mmHg 94%
    02:00 +11°C° 0.3 mm 4 mps 737 mmHg 94%
    03:00 +11°C° 0.3 mm 4 mps 737 mmHg 93%
    04:00 +10°C° 0.3 mm 4 mps 737 mmHg 93%
    05:00 +11°C° 0.1 mm 4 mps 737 mmHg 89%
    06:00 +11°C° 0.1 mm 4 mps 737 mmHg 86%
    07:00 +11°C° 0.1 mm 4 mps 737 mmHg 83%
    08:00 +13°C° 0 mm 4 mps 737 mmHg 76%
    09:00 +15°C° 0 mm 4 mps 737 mmHg 69%
    10:00 +17°C° 0 mm 4 mps 737 mmHg 62%
    11:00 +18°C° 0 mm 4 mps 737 mmHg 60%
    12:00 +19°C° 0 mm 4 mps 737 mmHg 59%
    13:00 +20°C° 0 mm 4 mps 737 mmHg 57%
    14:00 +19°C° 0 mm 4 mps 736 mmHg 60%
    15:00 +19°C° 0 mm 3 mps 736 mmHg 62%
    16:00 +19°C° 0 mm 3 mps 736 mmHg 65%
    17:00 +18°C° 0 mm 3 mps 736 mmHg 68%
    18:00 +17°C° 0 mm 2 mps 735 mmHg 72%
    19:00 +16°C° 0 mm 2 mps 735 mmHg 76%
    20:00 +15°C° 0 mm 2 mps 736 mmHg 79%
    21:00 +14°C° 0 mm 2 mps 736 mmHg 82%
    22:00 +13°C° 0 mm 2 mps 736 mmHg 85%
    23:00 +12°C° 0 mm 2 mps 736 mmHg 87%

    25 May, Saturday

    Time Temperature Precipitation Wind Pressure Humidity
    00:00 +12°C° 0 mm 2 mps 736 mmHg 90%
    01:00 +10°C° 0 mm 2 mps 736 mmHg 92%
    02:00 +10°C° 0 mm 2 mps 736 mmHg 93%
    03:00 +10°C° 0 mm 2 mps 736 mmHg 93%
    04:00 +11°C° 0 mm 1 mps 736 mmHg 94%
    05:00 +13°C° 0 mm 2 mps 736 mmHg 88%
    06:00 +15°C° 0 mm 2 mps 736 mmHg 82%
    07:00 +16°C° 0 mm 2 mps 736 mmHg 77%
    08:00 +18°C° 0.1 mm 3 mps 736 mmHg 71%
    09:00 +19°C° 0.1 mm 3 mps 736 mmHg 65%
    10:00 +20°C° 0.1 mm 3 mps 736 mmHg 60%
    11:00 +21°C° 0.2 mm 4 mps 736 mmHg 59%
    12:00 +21°C° 0.2 mm 4 mps 736 mmHg 58%
    13:00 +22°C° 0.2 mm 5 mps 735 mmHg 57%
    14:00 +21°C° 0.3 mm 5 mps 735 mmHg 60%
    15:00 +21°C° 0.3 mm 5 mps 735 mmHg 62%
    16:00 +20°C° 0.3 mm 5 mps 735 mmHg 64%
    17:00 +19°C° 0 mm 4 mps 735 mmHg 69%
    18:00 +17°C° 0 mm 3 mps 735 mmHg 74%
    19:00 +16°C° 0 mm 3 mps 735 mmHg 79%
    20:00 +15°C° 0 mm 2 mps 736 mmHg 81%
    21:00 +14°C° 0 mm 2 mps 736 mmHg 84%
    22:00 +12°C° 0 mm 1 mps 736 mmHg 86%
    23:00 +12°C° 0 mm 2 mps 736 mmHg 89%

    26 May, Sunday

    Time Temperature Precipitation Wind Pressure Humidity
    00:00 +10°C° 0 mm 2 mps 736 mmHg 91%
    01:00 +9°C° 0 mm 2 mps 736 mmHg 94%
    02:00 +9°C° 0 mm 2 mps 736 mmHg 94%
    03:00 +9°C° 0 mm 2 mps 736 mmHg 94%
    04:00 +8°C° 0 mm 2 mps 736 mmHg 95%
    05:00 +10°C° 0 mm 3 mps 736 mmHg 88%
    06:00 +12°C° 0 mm 3 mps 736 mmHg 81%
    07:00 +13°C° 0 mm 4 mps 736 mmHg 74%
    08:00 +14°C° 0 mm 5 mps 736 mmHg 69%
    09:00 +15°C° 0 mm 6 mps 736 mmHg 65%
    10:00 +16°C° 0 mm 7 mps 736 mmHg 60%
    11:00 +17°C° 0 mm 7 mps 735 mmHg 57%
    12:00 +17°C° 0 mm 7 mps 735 mmHg 55%
    13:00 +18°C° 0 mm 7 mps 735 mmHg 52%
    14:00 +18°C° 0 mm 7 mps 735 mmHg 53%
    15:00 +17°C° 0 mm 6 mps 735 mmHg 53%
    16:00 +17°C° 0 mm 6 mps 735 mmHg 54%
    17:00 +16°C° 0 mm 5 mps 735 mmHg 59%
    18:00 +15°C° 0 mm 4 mps 735 mmHg 64%
    19:00 +14°C° 0 mm 3 mps 735 mmHg 69%
    20:00 +13°C° 0 mm 3 mps 735 mmHg 72%
    21:00 +12°C° 0 mm 3 mps 735 mmHg 76%
    22:00 +11°C° 0 mm 3 mps 735 mmHg 80%
    23:00 +10°C° 0 mm 3 mps 735 mmHg 83%

    27 May, Monday

    Time Temperature Precipitation Wind Pressure Humidity
    00:00 +10°C° 0 mm 2 mps 736 mmHg 86%
    01:00 +9°C° 0 mm 2 mps 736 mmHg 89%
    02:00 +9°C° 0 mm 2 mps 736 mmHg 90%
    03:00 +9°C° 0 mm 2 mps 736 mmHg 92%
    04:00 +9°C° 0 mm 2 mps 736 mmHg 93%
    05:00 +12°C° 0 mm 2 mps 736 mmHg 87%
    06:00 +13°C° 0 mm 2 mps 736 mmHg 81%
    07:00 +15°C° 0 mm 2 mps 736 mmHg 74%
    08:00 +17°C° 0 mm 3 mps 736 mmHg 70%
    09:00 +18°C° 0 mm 3 mps 735 mmHg 66%
    10:00 +20°C° 0 mm 4 mps 735 mmHg 62%
    11:00 +20°C° 0.2 mm 4 mps 735 mmHg 62%
    12:00 +21°C° 0.2 mm 4 mps 734 mmHg 62%
    13:00 +22°C° 0.2 mm 5 mps 734 mmHg 63%
    14:00 +22°C° 0.2 mm 5 mps 733 mmHg 63%
    15:00 +22°C° 0.2 mm 4 mps 733 mmHg 64%
    16:00 +22°C° 0.2 mm 4 mps 732 mmHg 65%
    17:00 +21°C° 0.5 mm 4 mps 732 mmHg 70%
    18:00 +19°C° 0.5 mm 3 mps 732 mmHg 76%
    19:00 +18°C° 0.5 mm 3 mps 732 mmHg 82%
    20:00 +17°C° 0.3 mm 3 mps 732 mmHg 84%
    21:00 +16°C° 0.3 mm 3 mps 733 mmHg 87%
    22:00 +14°C° 0.3 mm 3 mps 733 mmHg 90%
    23:00 +15°C° 0.1 mm 2 mps 733 mmHg 92%
    Show more